Wetterstation Hallschlag, 537 m . NN
Wetterdaten: Mittwoch, 22.11.2006
Datum Zeit Temp. A. Temp. 2 Feuchte A. Luftdruck Regen Wind Richtung Richtung Sonnenschein Helligkeit T Regen Taupunkt Windchill
22.11.2006 00:00 3,0 C 2,6 C 92 % 997 hPa 0,0 l/m 10,8 km/h (2 Bft) W22.5 260 0 min 0 lux 0,00 min 1,8 C -0,7 C
22.11.2006 00:15 3,0 C 2,5 C 92 % 997 hPa 0,0 l/m 16,9 km/h (3 Bft) W22.5 260 0 min 0 lux 0,00 min 1,8 C -4,3 C
22.11.2006 00:30 2,9 C 2,4 C 92 % 997 hPa 0,0 l/m 15,3 km/h (3 Bft) W22.5 260 0 min 0 lux 0,00 min 1,7 C -3,6 C
22.11.2006 00:45 2,7 C 2,3 C 92 % 998 hPa 0,0 l/m 10,5 km/h (2 Bft) W-SW 255 0 min 0 lux 0,00 min 1,5 C -0,8 C
22.11.2006 01:00 2,7 C 2,3 C 92 % 998 hPa 0,0 l/m 7,4 km/h (2 Bft) W-SW22.5 255 0 min 0 lux 0,00 min 1,5 C 1,7 C
22.11.2006 01:15 2,7 C 2,4 C 92 % 998 hPa 0,0 l/m 13,0 km/h (3 Bft) W22.5 260 0 min 0 lux 0,00 min 1,5 C -2,5 C
22.11.2006 01:30 2,7 C 2,4 C 93 % 998 hPa 0,0 l/m 9,0 km/h (2 Bft) W-SW22.5 250 0 min 0 lux 0,00 min 1,7 C 0,3 C
22.11.2006 01:45 2,7 C 2,4 C 93 % 998 hPa 0,0 l/m 10,7 km/h (2 Bft) W-SW22.5 255 0 min 0 lux 0,00 min 1,7 C -1,0 C
22.11.2006 02:00 2,7 C 2,2 C 93 % 998 hPa 0,0 l/m 14,9 km/h (3 Bft) W-SW22.5 255 0 min 0 lux 0,00 min 1,7 C -3,7 C
22.11.2006 02:15 2,7 C 2,3 C 93 % 998 hPa 0,0 l/m 14,7 km/h (3 Bft) W-SW22.5 250 0 min 0 lux 0,00 min 1,7 C -3,5 C
22.11.2006 02:30 2,7 C 2,3 C 93 % 998 hPa 0,0 l/m 16,9 km/h (3 Bft) W22.5 260 0 min 0 lux 0,00 min 1,7 C -4,7 C
22.11.2006 02:45 2,7 C 2,4 C 93 % 998 hPa 0,0 l/m 16,9 km/h (3 Bft) W22.5 260 0 min 0 lux 0,00 min 1,7 C -4,7 C
22.11.2006 03:00 2,7 C 2,3 C 93 % 998 hPa 0,0 l/m 24,6 km/h (4 Bft) W22.5 260 0 min 0 lux 0,00 min 1,7 C -7,9 C
22.11.2006 03:15 2,6 C 2,3 C 92 % 998 hPa 0,0 l/m 14,9 km/h (3 Bft) W22.5 270 0 min 0 lux 0,00 min 1,4 C -3,8 C
22.11.2006 03:30 2,5 C 2,1 C 92 % 998 hPa 0,0 l/m 20,8 km/h (4 Bft) W22.5 265 0 min 0 lux 0,00 min 1,3 C -6,7 C
22.11.2006 03:45 2,5 C 2,2 C 92 % 998 hPa 0,0 l/m 23,1 km/h (4 Bft) W22.5 265 0 min 0 lux 0,00 min 1,3 C -7,6 C
22.11.2006 04:00 2,5 C 2,1 C 92 % 998 hPa 0,0 l/m 22,3 km/h (4 Bft) W22.5 260 0 min 0 lux 0,00 min 1,3 C -7,3 C
22.11.2006 04:15 2,4 C 2,0 C 92 % 998 hPa 0,0 l/m 26,2 km/h (4 Bft) W45 265 0 min 0 lux 0,00 min 1,2 C -8,9 C
22.11.2006 04:30 2,4 C 2,1 C 92 % 998 hPa 0,0 l/m 28,5 km/h (4 Bft) W45 260 0 min 0 lux 0,00 min 1,2 C -9,6 C
22.11.2006 04:45 2,4 C 2,1 C 92 % 999 hPa 0,0 l/m 31,3 km/h (5 Bft) W-SW45 255 0 min 0 lux 0,00 min 1,2 C -10,4 C
22.11.2006 05:00 2,3 C 1,9 C 91 % 999 hPa 0,0 l/m 23,7 km/h (4 Bft) W-SW22.5 255 0 min 0 lux 0,00 min 1,0 C -8,1 C
22.11.2006 05:15 2,2 C 1,8 C 91 % 999 hPa 0,0 l/m 23,9 km/h (4 Bft) W-SW22.5 250 0 min 0 lux 0,00 min 0,9 C -8,3 C
22.11.2006 05:30 1,9 C 1,4 C 91 % 999 hPa 0,0 l/m 22,5 km/h (4 Bft) W-SW22.5 250 0 min 0 lux 0,00 min 0,6 C -8,2 C
22.11.2006 05:45 1,6 C 1,2 C 91 % 999 hPa 0,0 l/m 18,8 km/h (3 Bft) W-SW22.5 245 0 min 0 lux 0,00 min 0,3 C -7,0 C
22.11.2006 06:00 1,6 C 1,2 C 92 % 999 hPa 0,0 l/m 24,6 km/h (4 Bft) W-SW45 240 0 min 0 lux 0,00 min 0,4 C -9,4 C
22.11.2006 06:15 1,7 C 1,3 C 92 % 999 hPa 0,0 l/m 24,3 km/h (4 Bft) W-SW45 250 0 min 0 lux 0,00 min 0,5 C -9,2 C
22.11.2006 06:30 1,8 C 1,5 C 92 % 999 hPa 0,0 l/m 27,0 km/h (4 Bft) W-SW22.5 240 0 min 0 lux 0,00 min 0,6 C -10,0 C
22.11.2006 06:45 1,9 C 1,6 C 92 % 999 hPa 0,0 l/m 22,8 km/h (4 Bft) W-SW45 245 0 min 0 lux 0,00 min 0,7 C -8,3 C
22.11.2006 07:00 1,9 C 1,6 C 92 % 999 hPa 0,0 l/m 23,4 km/h (4 Bft) W-SW45 245 0 min 0 lux 0,00 min 0,7 C -8,6 C
22.11.2006 07:15 1,9 C 1,6 C 92 % 999 hPa 0,0 l/m 26,3 km/h (4 Bft) SW45 235 0 min 0 lux 0,00 min 0,7 C -9,6 C
22.11.2006 07:30 1,9 C 1,7 C 92 % 999 hPa 0,0 l/m 28,3 km/h (4 Bft) SW45 230 0 min 0 lux 0,00 min 0,7 C -10,2 C
22.11.2006 07:45 1,9 C 1,7 C 92 % 999 hPa 0,0 l/m 24,8 km/h (4 Bft) W-SW45 250 0 min 42 lux 0,00 min 0,7 C -9,1 C
22.11.2006 08:00 2,0 C 1,7 C 93 % 999 hPa 0,0 l/m 26,4 km/h (4 Bft) W-SW45 240 0 min 196 lux 0,00 min 1,0 C -9,5 C
22.11.2006 08:15 2,1 C 1,7 C 93 % 1000 hPa 0,0 l/m 26,8 km/h (4 Bft) W-SW45 250 0 min 666 lux 0,00 min 1,1 C -9,5 C
22.11.2006 08:30 2,1 C 1,7 C 93 % 1000 hPa 0,0 l/m 28,8 km/h (4 Bft) W-SW45 240 0 min 931 lux 0,00 min 1,1 C -10,1 C
22.11.2006 08:45 2,2 C 1,9 C 93 % 1000 hPa 0,0 l/m 25,7 km/h (4 Bft) W-SW45 250 0 min 2,23 klux 0,00 min 1,2 C -9,0 C
22.11.2006 09:00 2,3 C 2,0 C 93 % 1000 hPa 0,0 l/m 25,3 km/h (4 Bft) W-SW45 250 0 min 4,12 klux 0,00 min 1,3 C -8,7 C
22.11.2006 09:15 2,5 C 2,1 C 93 % 1000 hPa 0,0 l/m 18,1 km/h (3 Bft) SW45 230 0 min 1,79 klux 0,00 min 1,5 C -5,5 C
22.11.2006 09:30 2,6 C 2,3 C 93 % 1000 hPa 0,0 l/m 22,8 km/h (4 Bft) W-SW22.5 255 0 min 7,09 klux 0,00 min 1,6 C -7,4 C
22.11.2006 09:45 2,7 C 2,4 C 93 % 1000 hPa 0,0 l/m 31,3 km/h (5 Bft) W-SW67.5 250 0 min 2,36 klux 0,00 min 1,7 C -10,0 C
22.11.2006 10:00 2,9 C 2,6 C 93 % 1000 hPa 0,0 l/m 29,8 km/h (5 Bft) W-SW45 240 0 min 4,55 klux 0,00 min 1,9 C -9,3 C
22.11.2006 10:15 3,2 C 3,0 C 92 % 1000 hPa 0,0 l/m 26,6 km/h (4 Bft) SW45 235 0 min 9,8 klux 0,00 min 2,0 C -7,9 C
22.11.2006 10:30 3,3 C 3,1 C 92 % 1000 hPa 0,0 l/m 31,6 km/h (5 Bft) W-SW45 240 0 min 5,63 klux 0,00 min 2,1 C -9,2 C
22.11.2006 10:45 3,6 C 3,3 C 91 % 1000 hPa 0,0 l/m 35,1 km/h (5 Bft) W-SW22.5 250 0 min 12,3 klux 0,00 min 2,3 C -9,6 C
22.11.2006 11:00 3,5 C 3,2 C 91 % 1001 hPa 0,0 l/m 37,0 km/h (5 Bft) W-SW45 250 0 min 4,53 klux 0,00 min 2,2 C -10,2 C
22.11.2006 11:15 3,5 C 3,2 C 91 % 1001 hPa 0,0 l/m 24,0 km/h (4 Bft) W-SW45 240 0 min 7,92 klux 0,00 min 2,2 C -6,6 C
22.11.2006 11:30 3,6 C 3,4 C 91 % 1001 hPa 0,0 l/m 26,7 km/h (4 Bft) SW45 235 0 min 8,48 klux 0,00 min 2,3 C -7,4 C
22.11.2006 11:45 3,7 C 3,4 C 91 % 1001 hPa 0,0 l/m 30,3 km/h (5 Bft) W-SW22.5 240 0 min 5,75 klux 0,00 min 2,4 C -8,3 C
22.11.2006 12:00 3,7 C 3,4 C 91 % 1000 hPa 0,0 l/m 28,5 km/h (4 Bft) SW45 230 0 min 7,58 klux 0,00 min 2,4 C -7,8 C
22.11.2006 12:15 4,2 C 3,9 C 91 % 1000 hPa 0,0 l/m 29,9 km/h (5 Bft) W-SW67.5 240 0 min 21,4 klux 0,00 min 2,9 C -7,5 C
22.11.2006 12:30 4,3 C 4,0 C 89 % 1000 hPa 0,0 l/m 32,9 km/h (5 Bft) W-SW22.5 250 0 min 12,4 klux 0,00 min 2,7 C -8,1 C
22.11.2006 12:45 4,1 C 3,9 C 89 % 1000 hPa 0,0 l/m 46,8 km/h (6 Bft) W-SW22.5 255 0 min 12,5 klux 0,00 min 2,5 C -10,9 C
22.11.2006 13:00 3,9 C 3,7 C 89 % 1000 hPa 0,0 l/m 33,6 km/h (5 Bft) W-SW45 240 0 min 4,98 klux 0,00 min 2,3 C -8,8 C
22.11.2006 13:15 3,8 C 3,5 C 90 % 1000 hPa 0,0 l/m 36,4 km/h (5 Bft) W-SW22.5 255 0 min 6,56 klux 0,00 min 2,3 C -9,6 C
22.11.2006 13:30 3,9 C 3,7 C 90 % 1000 hPa 0,0 l/m 35,2 km/h (5 Bft) W-SW22.5 245 0 min 12,3 klux 0,00 min 2,4 C -9,2 C
22.11.2006 13:45 4,0 C 3,8 C 90 % 1000 hPa 0,0 l/m 31,6 km/h (5 Bft) W-SW45 240 0 min 8,29 klux 0,00 min 2,5 C -8,2 C
22.11.2006 14:00 4,1 C 3,8 C 90 % 1000 hPa 0,0 l/m 34,0 km/h (5 Bft) W-SW45 250 0 min 8,10 klux 0,00 min 2,6 C -8,6 C
22.11.2006 14:15 4,0 C 3,7 C 90 % 1000 hPa 0,0 l/m 26,6 km/h (4 Bft) W-SW45 240 0 min 5,10 klux 0,00 min 2,5 C -6,8 C
22.11.2006 14:30 3,9 C 3,6 C 90 % 1000 hPa 0,0 l/m 37,3 km/h (5 Bft) SW45 230 0 min 5,59 klux 0,00 min 2,4 C -9,6 C
22.11.2006 14:45 3,7 C 3,5 C 90 % 1000 hPa 0,0 l/m 28,8 km/h (4 Bft) W-SW45 245 0 min 6,48 klux 0,00 min 2,2 C -7,9 C
22.11.2006 15:00 3,6 C 3,2 C 91 % 1000 hPa 0,3 l/m 27,9 km/h (4 Bft) SW45 235 0 min 3,61 klux 15,00 min 2,3 C -7,7 C
22.11.2006 15:15 3,5 C 3,0 C 91 % 999 hPa 0,0 l/m 23,4 km/h (4 Bft) SW45 215 0 min 3,96 klux 0,00 min 2,2 C -6,4 C
22.11.2006 15:30 3,2 C 2,8 C 91 % 1000 hPa 0,0 l/m 28,5 km/h (4 Bft) SW45 235 0 min 2,70 klux 0,00 min 1,9 C -8,5 C
22.11.2006 15:45 3,1 C 2,7 C 91 % 1000 hPa 0,0 l/m 30,1 km/h (5 Bft) SW45 220 0 min 1,66 klux 0,00 min 1,8 C -9,1 C
22.11.2006 16:00 3,1 C 2,7 C 92 % 1000 hPa 0,0 l/m 34,1 km/h (5 Bft) SW45 235 0 min 882 lux 0,00 min 1,9 C -10,1 C
22.11.2006 16:15 3,2 C 2,7 C 93 % 1000 hPa 0,0 l/m 32,1 km/h (5 Bft) W-SW22.5 240 0 min 877 lux 0,00 min 2,2 C -9,5 C
22.11.2006 16:30 3,2 C 2,8 C 93 % 1000 hPa 0,0 l/m 31,8 km/h (5 Bft) SW45 225 0 min 584 lux 0,00 min 2,2 C -9,4 C
22.11.2006 16:45 3,2 C 2,8 C 92 % 1000 hPa 0,0 l/m 30,6 km/h (5 Bft) SW45 235 0 min 419 lux 0,00 min 2,0 C -9,1 C
22.11.2006 17:00 3,1 C 2,9 C 93 % 1000 hPa 0,0 l/m 28,5 km/h (4 Bft) SW45 215 0 min 166 lux 0,00 min 2,1 C -8,6 C
22.11.2006 17:15 3,2 C 2,9 C 92 % 1000 hPa 0,0 l/m 27,0 km/h (4 Bft) SW45 235 0 min 24 lux 0,00 min 2,0 C -8,0 C
22.11.2006 17:30 3,1 C 2,8 C 92 % 1000 hPa 0,0 l/m 25,9 km/h (4 Bft) SW45 220 0 min 4 lux 0,00 min 1,9 C -7,8 C
22.11.2006 17:45 3,0 C 2,7 C 92 % 1000 hPa 0,0 l/m 25,8 km/h (4 Bft) SW45 220 0 min 0 lux 0,00 min 1,8 C -7,9 C
22.11.2006 18:00 3,0 C 2,6 C 92 % 1000 hPa 0,0 l/m 21,2 km/h (4 Bft) SW45 220 0 min 0 lux 0,00 min 1,8 C -6,3 C
22.11.2006 18:15 3,1 C 2,8 C 92 % 1000 hPa 0,0 l/m 23,2 km/h (4 Bft) SW67.5 215 0 min 0 lux 0,00 min 1,9 C -6,9 C
22.11.2006 18:31 3,3 C 3,0 C 92 % 999 hPa 0,0 l/m 26,6 km/h (4 Bft) S-SW45 195 0 min 0 lux 0,00 min 2,1 C -7,8 C
22.11.2006 18:45 3,4 C 3,1 C 92 % 999 hPa 0,0 l/m 27,8 km/h (4 Bft) S-SW45 200 0 min 0 lux 0,00 min 2,2 C -8,0 C
22.11.2006 19:00 3,3 C 3,0 C 92 % 999 hPa 0,0 l/m 23,4 km/h (4 Bft) S67.5 190 0 min 0 lux 0,00 min 2,1 C -6,7 C
22.11.2006 19:15 3,4 C 3,1 C 91 % 999 hPa 0,0 l/m 32,3 km/h (5 Bft) S-SW45 210 0 min 0 lux 0,00 min 2,1 C -9,2 C
22.11.2006 19:30 3,5 C 3,2 C 91 % 999 hPa 0,0 l/m 31,8 km/h (5 Bft) S-SW67.5 200 0 min 0 lux 0,00 min 2,2 C -9,0 C
22.11.2006 19:45 3,6 C 3,3 C 91 % 999 hPa 0,0 l/m 46,7 km/h (6 Bft) S-SW67.5 195 0 min 0 lux 0,00 min 2,3 C -11,7 C
22.11.2006 20:00 3,6 C 3,4 C 90 % 998 hPa 0,0 l/m 38,9 km/h (6 Bft) S-SW45 195 0 min 0 lux 0,00 min 2,1 C -10,4 C
22.11.2006 20:15 3,6 C 3,3 C 89 % 998 hPa 0,0 l/m 30,4 km/h (5 Bft) SW45 215 0 min 0 lux 0,00 min 2,0 C -8,5 C
22.11.2006 20:30 3,5 C 3,3 C 90 % 998 hPa 0,0 l/m 36,9 km/h (5 Bft) S45 190 0 min 0 lux 0,00 min 2,0 C -10,1 C
22.11.2006 20:45 3,4 C 3,1 C 91 % 998 hPa 0,3 l/m 35,1 km/h (5 Bft) S-SW45 200 0 min 0 lux 15,00 min 2,1 C -9,9 C
22.11.2006 21:00 3,2 C 2,9 C 91 % 998 hPa 0,0 l/m 33,7 km/h (5 Bft) S-SW45 210 0 min 0 lux 0,00 min 1,9 C -9,9 C
22.11.2006 21:15 3,1 C 2,8 C 91 % 998 hPa 0,3 l/m 32,7 km/h (5 Bft) S-SW67.5 205 0 min 0 lux 15,00 min 1,8 C -9,8 C
22.11.2006 21:30 2,9 C 2,6 C 92 % 997 hPa 0,3 l/m 30,6 km/h (5 Bft) S-SW67.5 195 0 min 0 lux 15,00 min 1,7 C -9,5 C
22.11.2006 21:45 2,8 C 2,5 C 92 % 997 hPa 0,3 l/m 22,4 km/h (4 Bft) S45 185 0 min 0 lux 15,00 min 1,6 C -7,0 C
22.11.2006 22:00 2,8 C 2,5 C 92 % 997 hPa 0,3 l/m 24,5 km/h (4 Bft) S-SW67.5 200 0 min 0 lux 15,00 min 1,6 C -7,8 C
22.11.2006 22:15 2,8 C 2,5 C 92 % 997 hPa 0,0 l/m 31,1 km/h (5 Bft) S-SW45 210 0 min 0 lux 0,00 min 1,6 C -9,8 C
22.11.2006 22:30 2,8 C 2,5 C 92 % 997 hPa 0,6 l/m 27,7 km/h (4 Bft) S-SW67.5 195 0 min 0 lux 15,00 min 1,6 C -8,8 C
22.11.2006 22:45 2,8 C 2,5 C 93 % 997 hPa 0,0 l/m 27,3 km/h (4 Bft) S-SW45 195 0 min 0 lux 0,00 min 1,8 C -8,7 C
22.11.2006 23:00 3,0 C 2,6 C 93 % 997 hPa 0,0 l/m 33,2 km/h (5 Bft) S-SW45 210 0 min 0 lux 0,00 min 2,0 C -10,0 C
22.11.2006 23:16 3,1 C 2,7 C 93 % 997 hPa 0,3 l/m 31,1 km/h (5 Bft) S-SW67.5 210 0 min 0 lux 16,00 min 2,1 C -9,3 C
22.11.2006 23:24 3,1 C 2,8 C 94 % 997 hPa 0,3 l/m 28,2 km/h (4 Bft) S-SW45 205 0 min 0 lux 8,00 min 2,2 C -8,5 C
22.11.2006 23:39 3,2 C 2,9 C 94 % 997 hPa 0,0 l/m 32,6 km/h (5 Bft) SW45 220 0 min 0 lux 0,00 min 2,3 C -9,6 C
22.11.2006 23:54 3,3 C 3,0 C 94 % 997 hPa 0,0 l/m 33,7 km/h (5 Bft) SW45 215 0 min 0 lux 0,00 min 2,4 C -9,7 C
_ Min-Zeit 05:45 05:45 12:30 00:00 - 01:00 - - - - - 05:45 19:45
Minimum _ 1,6 C 1,2 C 89 % 997 hPa - 7,4 km/h (2 Bft) - - - - - 0,3 C -11,7 C
_ Max-Zeit 12:30 12:30 23:24 11:00 22:30 12:45 - - 00:00 12:15 23:16 12:15 01:00
Maximum _ 4,3 C 4,0 C 94 % 1001 hPa 0,6 l/m 46,8 km/h
W-SW (6 Bft)
- - 0 min 21,4 klux 16,00 min 2,9 C 1,7 C
Durchschnitt _ 3,0 C 2,6 C 92 % 999 hPa #2,9 l/m 26,8 km/h (4 Bft) W-SW - #0 min. 2,11 klux #2:09 h 1,8 C -7,9 C